Dewpoint
28 28 28 27 27 29 31 31 29 24 24 26 26 29 33 39 42 43 48 49 51 51 51 52 55 56 56 58 59 60 60 60 60 60 60 60 60 60
25 27 26 26 26 28 28 31 31 28 25 26 28 32 36 34 36 38 44 50 47 48 48 49 51 53 54 54 55 57 58 59 59 59 59 59 59 60
24 26 24 24 25 26 26 28 29 29 26 27 30 33 33 33 34 37 39 45 48 43 44 44 47 49 51 51 52 53 56 57 57 58 58 59 59 59
21 22 22 22 24 25 26 26 28 30 29 27 28 31 31 32 33 35 37 38 44 40 41 43 44 46 46 47 49 50 51 51 53 55 56 57 58 58
20 21 22 23 22 23 25 25 26 28 30 29 28 31 30 31 30 33 35 35 38 36 38 42 42 45 45 44 44 46 48 49 49 50 51 52 54 56
20 21 21 22 21 23 23 24 24 25 28 27 27 27 29 27 28 29 29 32 32 30 34 38 38 43 41 40 40 41 42 46 46 47 48 48 49 52
20 20 22 23 22 22 22 23 24 23 23 23 23 23 24 24 26 28 29 30 36 29 31 37 34 36 40 38 38 39 40 41 44 45 46 46 48 49
18 19 21 22 22 21 22 22 22 23 22 22 21 21 22 23 24 26 28 30 25 28 29 32 31 32 33 39 37 37 37 39 39 40 44 45 45 45
11 15 18 22 22 19 20 19 19 21 22 23 21 22 22 24 24 24 25 26 28 26 28 28 29 29 32 35 35 35 36 36 36 37 38 38 41 42
12 14 11 17 20 20 18 17 16 18 20 20 21 22 23 25 23 24 23 24 29 25 26 25 27 26 30 35 33 33 35 33 34 35 36 37 37 39
15 16 20 16 20 21 16 15 14 15 19 19 19 19 20 22 22 21 19 20 20 23 23 24 24 24 30 31 31 31 31 32 31 33 33 35 36 38
19 19 20 18 19 18 17 15 12 13 15 14 14 15 16 18 20 19 20 17 18 18 21 21 21 21 22 30 28 29 29 31 29 30 31 33 34 35
17 17 18 18 17 18 17 15 13 14 14 13 12 12 12 14 16 17 18 18 18 17 20 20 19 19 19 21 26 26 27 28 29 29 29 31 33 33
15 15 16 16 15 16 15 15 14 12 12 11 10 10 10 12 14 15 17 17 18 17 19 19 17 17 17 16 19 23 24 26 28 28 28 29 30 32
14 14 14 14 14 14 14 14 13 10 8 8 8 8 10 12 13 14 15 15 16 16 17 17 16 16 16 15 17 20 20 22 25 26 27 28 29 30
3 1 3 13 3 3 6 10 10 10 7 7 7 8 8 8 9 12 11 11 11 10 13 15 14 15 13 15 17 17 19 17 21 22 24 26 28 29
1 -4 -4 -4 3 6 6 8 9 10 7 6 5 5 4 5 6 9 9 8 8 8 8 10 11 13 13 15 12 16 16 16 19 20 21 22 24 27
1 -7 -8 -10 -5 1 3 5 6 6 7 5 3 3 2 2 3 5 7 6 6 6 7 8 8 8 7 12 12 14 14 15 17 18 19 19 20 24
-4 -10 -10 -11 -8 -5 -5 -5 -4 -2 -2 -0 1 0 1 1 0 2 4 4 4 5 5 6 6 6 2 1 8 11 12 14 15 15 16 19 19 22
-8 -8 -7 -9 -8 -7 -9 -9 -8 -5 -6 -8 -6 -5 -4 -1 -2 -1 1 2 3 3 3 3 4 6 4 4 6 9 13 13 13 14 15 17 18 24
-5 -5 -8 -8 -8 -9 -12 -13 -15 -13 -12 -15 -14 -13 -11 -6 -4 -3 -1 0 2 2 -0 -0 3 8 7 7 3 4 8 13 13 13 14 14 15 17
-3 -2 -2 -5 -7 -8 -11 -14 -12 -12 -12 -14 -16 -18 -17 -15 -14 -6 -4 -2 1 2 -0 1 3 5 3 3 2 3 5 7 11 13 14 15 16 14
-2 0 -3 -5 -7 -8 -5 -8 -10 -13 -12 -12 -14 -13 -19 -16 -11 -10 -7 -3 1 1 -1 -2 0 2 1 2 3 2 2 4 6 7 9 14 17 19
Lifted_Index
14 14 14 15 16 16 16 15 14 11 11 11 12 12 12 11 11 10 8 6 4 3 2 1 1 1 1 0 -0 -0 -0 -0 -0 -0 0 0 1 1
14 14 14 14 15 16 16 16 15 13 12 13 13 13 12 11 11 9 7 5 4 3 2 1 1 1 1 1 1 1 0 -0 -0 -0 0 0 0 0
15 14 13 13 14 14 15 15 15 14 13 13 14 14 13 11 10 8 6 4 3 3 2 1 1 1 1 2 3 3 2 0 -0 -0 0 0 0 0
15 14 13 13 12 12 13 13 13 14 14 13 14 14 13 11 9 7 6 4 3 2 2 2 1 1 1 3 4 4 3 2 1 0 0 0 0 0
15 15 14 13 13 12 12 12 12 13 13 13 12 13 13 12 10 8 6 5 3 3 3 2 2 2 2 3 4 4 3 3 2 1 1 0 0 0
16 16 16 15 15 14 14 13 13 13 13 12 12 12 13 12 10 8 7 6 5 4 4 4 4 3 3 3 4 4 4 3 3 2 2 1 0 -0
16 16 17 17 17 16 16 16 16 15 14 13 13 13 13 12 11 10 8 7 6 6 6 5 5 5 5 5 5 4 4 4 4 4 3 2 1 1
16 16 17 17 18 18 18 18 18 17 16 16 15 15 15 15 14 12 11 9 8 9 8 7 7 7 7 8 8 7 5 5 5 4 4 4 3 3
16 16 16 17 17 18 18 19 19 19 19 18 18 18 18 18 17 16 14 13 12 12 11 9 8 9 10 11 11 10 9 7 7 6 5 5 4 4
16 16 16 16 17 18 18 18 19 19 20 20 20 20 20 20 20 19 17 16 16 16 14 12 11 11 12 13 13 13 12 11 10 9 8 7 6 5
17 17 17 17 17 18 17 17 18 18 19 20 21 21 21 22 22 21 19 18 17 18 18 16 14 13 12 14 16 16 15 14 13 12 12 10 9 8
17 17 18 18 18 18 18 17 17 18 19 19 20 20 21 21 22 22 21 19 18 19 20 20 18 16 14 16 18 19 18 17 15 15 14 13 12 11
17 17 18 19 19 19 19 18 18 19 19 19 19 19 20 20 21 22 22 21 20 21 22 22 21 19 18 18 19 20 20 19 18 17 16 15 14 13
17 18 18 19 19 19 19 19 19 19 19 19 18 19 19 20 21 22 22 22 22 22 23 23 22 21 20 19 19 20 21 21 21 20 19 18 17 16
18 18 19 19 19 19 20 20 20 20 19 19 19 20 21 21 22 22 22 22 22 23 23 23 23 22 21 21 21 21 21 21 22 22 21 21 20 19
19 19 19 19 19 19 19 20 20 20 20 20 20 21 21 22 22 22 22 22 21 22 23 23 23 22 22 21 21 21 21 21 21 22 22 22 22 22
18 18 18 18 18 18 19 19 20 20 20 20 21 21 21 21 22 22 22 21 21 21 22 22 23 22 21 21 21 21 20 20 21 21 22 21 22 22
18 17 17 17 17 17 18 19 20 20 21 21 21 21 21 21 21 22 22 21 21 21 21 22 22 21 20 20 21 22 21 21 21 21 21 21 21 22
17 17 17 17 17 18 18 19 19 20 21 21 21 21 21 20 20 20 20 20 20 20 21 22 22 20 19 18 20 22 22 22 21 21 21 21 21 21
18 17 17 18 18 19 19 19 20 20 21 21 21 21 20 20 20 19 19 19 19 19 19 20 21 21 20 20 20 21 23 23 22 21 21 20 20 20
18 18 18 19 19 19 20 20 20 20 20 21 21 21 21 20 20 20 20 20 20 19 19 20 21 22 22 21 20 20 21 22 23 22 22 21 20 20
18 19 19 19 19 20 20 20 20 20 20 21 21 21 21 21 21 21 21 21 21 21 20 21 21 22 22 21 20 20 20 21 21 21 21 21 21 20
19 19 19 20 20 20 20 20 20 20 21 21 21 21 21 21 22 22 22 22 22 21 21 21 21 21 21 21 20 20 20 20 20 20 20 21 21 20